Waarnemingen

Advertentie
Mijn weer
Pembrey Sands, Groot Brittannië (3605): temperatuur & dauwpunt: 09.12.2017 17:00:00 - 15.12.2017 17:00:00 (GMT)Pembrey Sands, Groot Brittannië (3605): windsnelheid & windstoten: 09.12.2017 17:00:00 - 15.12.2017 17:00:00 (GMT)Pembrey Sands, Groot Brittannië (3605): windrichting: 09.12.2017 17:00:00 - 15.12.2017 17:00:00 (GMT)Pembrey Sands, Groot Brittannië (3605): luchtdruk: 09.12.2017 17:00:00 - 15.12.2017 17:00:00 (GMT)Pembrey Sands, Groot Brittannië (3605): zicht: 09.12.2017 17:00:00 - 15.12.2017 17:00:00 (GMT)Pembrey Sands, Groot Brittannië (3605): neerslag: 09.12.2017 17:00:00 - 15.12.2017 17:00:00 (GMT)
Datum & Tijd tt [°C] td [°C] ff [km/u] ff [kn] fx [km/u] fx [kn] dd ppp [hPa] vv [km] rr [mm]
15.12.2017 17:00:00 6,1 2,1 22 12 52 28 N 1010,0 28 0,0
15.12.2017 16:00:00 7,1 2,5 31 17 46 25 N 1008,7 28 0,0
15.12.2017 15:00:00 7,6 3,4 34 18 57 31 N 1007,4 30 0,0
15.12.2017 14:00:00 7,3 2,7 44 24 67 36 N 1006,1 30 0,0
15.12.2017 13:00:00 8,0 3,4 31 17 55 30 N 1004,8 30 0,0
15.12.2017 12:00:00 6,9 4,5 18 10 - - NNW 1004,3 35 0,0
15.12.2017 11:00:00 6,5 3,3 24 13 - - NNW 1003,4 30 0,0
15.12.2017 10:00:00 5,2 2,5 18 10 - - N 1002,5 30 0,0
15.12.2017 09:00:00 3,8 1,3 21 11 - - N 1001,4 30 0,0
15.12.2017 08:00:00 4,5 1,5 22 12 - - NNO 1000,3 30 0,0
15.12.2017 07:00:00 5,3 2,4 28 15 46 25 N 998,6 30 0,0
15.12.2017 06:00:00 5,5 2,6 29 16 57 31 N 996,7 30 0,2
15.12.2017 05:00:00 5,8 4,3 42 23 83 45 NNW 994,9 4,0 2,0
15.12.2017 04:00:00 7,0 4,2 50 27 68 37 NW 993,6 10 0,2
15.12.2017 03:00:00 7,4 3,9 52 28 70 38 WNW 993,4 11 0,0
15.12.2017 02:00:00 6,9 3,7 52 28 70 38 WNW 993,1 18 0,0
15.12.2017 01:00:00 6,1 3,3 41 22 50 27 WNW 993,3 26 0,0
15.12.2017 00:00:00 5,8 2,8 35 19 48 26 W 993,3 30 0,0
14.12.2017 23:00:00 5,6 3,1 26 14 46 25 W 993,1 29 0,0
14.12.2017 22:00:00 5,9 3,2 26 14 - - W 992,7 28 0,0
14.12.2017 21:00:00 5,7 2,3 39 21 55 30 WNW 991,9 28 0,0
14.12.2017 20:00:00 6,0 2,2 37 20 61 33 NNW 990,7 29 0,0
14.12.2017 19:00:00 6,5 3,3 41 22 55 30 NW 989,5 29 0,0
14.12.2017 18:00:00 5,9 4,0 35 19 - - WNW 988,5 17 0,2
14.12.2017 17:00:00 6,3 4,4 37 20 57 31 WNW 987,8 6 0,6
14.12.2017 16:00:00 7,3 3,9 31 17 50 27 W 988,0 9 0,0
14.12.2017 15:00:00 6,8 3,2 44 24 76 41 W 988,8 10 0,0
14.12.2017 14:00:00 7,5 3,2 39 21 65 35 W 989,3 10 0,0
14.12.2017 13:00:00 7,7 2,4 42 23 61 33 W 990,2 13 0,0
14.12.2017 12:00:00 7,5 2,4 42 23 54 29 W 991,2 18 0,0
14.12.2017 11:00:00 6,2 1,9 34 18 54 29 W 992,3 25 0,0
14.12.2017 10:00:00 5,9 2,3 34 18 48 26 W 992,8 22 0,0
14.12.2017 09:00:00 5,8 2,2 31 17 57 31 W 992,9 23 0,0
14.12.2017 08:00:00 6,1 2,3 41 22 61 33 W 993,6 10 0,0
14.12.2017 07:00:00 6,0 2,9 31 17 83 45 W 993,8 14 0,0
14.12.2017 06:00:00 6,1 2,0 46 25 74 40 W 994,3 14 0,2
14.12.2017 05:00:00 5,7 2,6 44 24 72 39 W 994,2 12 0,2
14.12.2017 04:00:00 6,6 2,6 44 24 68 37 W 994,6 9 0,2
14.12.2017 03:00:00 6,6 1,9 54 29 85 46 W 995,5 11 0,0
14.12.2017 02:00:00 6,9 2,3 52 28 87 47 W 995,2 13 0,0
14.12.2017 01:00:00 7,0 2,8 55 30 83 45 W 995,6 13 0,0
14.12.2017 00:00:00 6,5 2,2 55 30 80 43 W 995,8 19 0,0
13.12.2017 23:00:00 6,0 1,4 59 32 81 44 W 995,6 26 0,0
13.12.2017 22:00:00 5,6 1,1 54 29 67 36 W 995,2 26 0,0
13.12.2017 21:00:00 4,9 0,8 52 28 78 42 W 994,8 29 0,0
13.12.2017 20:00:00 5,2 1,2 61 33 80 43 WNW 993,6 28 0,0
13.12.2017 19:00:00 5,5 1,7 65 35 89 48 WNW 992,3 30 0,4
13.12.2017 18:00:00 7,5 5,1 59 32 85 46 W 992,0 12 0,2
13.12.2017 17:00:00 8,0 3,4 31 17 59 32 WZW 992,6 10 0,0
13.12.2017 16:00:00 7,4 3,2 24 13 48 26 W 994,3 9 0,0
13.12.2017 15:00:00 7,5 2,1 37 20 61 33 W 994,8 11 0,0
13.12.2017 14:00:00 8,2 2,9 50 27 68 37 WNW 995,1 14 0,0
13.12.2017 13:00:00 8,5 5,1 59 32 81 44 WNW 994,7 13 0,0
13.12.2017 12:00:00 9,3 7,0 50 27 65 35 W 994,4 14 0,6
13.12.2017 11:00:00 9,0 8,1 31 17 54 29 WZW 995,9 8 0,2
13.12.2017 10:00:00 8,8 7,8 31 17 52 28 WZW 997,3 10 0,8
13.12.2017 09:00:00 8,6 7,2 29 16 50 27 WZW 998,6 5 0,0
13.12.2017 08:00:00 8,9 6,7 31 17 - - WZW 999,4 14 0,0
13.12.2017 07:00:00 8,3 6,7 22 12 - - W 1000,5 7 0,2
13.12.2017 06:00:00 8,2 6,7 15 8 - - W 1001,2 6 0,0
13.12.2017 05:00:00 8,2 6,2 21 11 - - W 1002,1 9 0,0
13.12.2017 04:00:00 8,6 6,2 28 15 - - W 1002,6 10 0,0
13.12.2017 03:00:00 8,2 6,3 22 12 - - W 1003,0 8 0,0
13.12.2017 02:00:00 8,0 6,0 21 11 - - W 1003,1 9 0,0
13.12.2017 01:00:00 8,0 6,2 22 12 - - W 1003,4 7 0,0
13.12.2017 00:00:00 7,8 5,9 29 16 - - WNW 1003,5 9 0,0
12.12.2017 23:00:00 8,0 6,4 31 17 - - WNW 1002,6 23 0,0
12.12.2017 22:00:00 9,0 8,3 31 17 48 26 W 1001,6 10 0,0
12.12.2017 21:00:00 9,5 8,8 48 26 63 34 ZZW 1002,5 8 0,6
12.12.2017 20:00:00 8,5 8,1 46 25 57 31 ZZW 1003,7 1,7 1,6
12.12.2017 19:00:00 7,8 7,4 42 23 57 31 ZZW 1005,0 2,3 1,2
12.12.2017 18:00:00 7,7 6,8 48 26 61 33 ZZW 1005,6 3,9 0,6
12.12.2017 17:00:00 8,2 4,4 42 23 61 33 ZZW 1006,2 22 0,2
12.12.2017 16:00:00 8,5 3,6 37 20 - - ZW 1006,1 21 0,4
12.12.2017 15:00:00 4,0 3,4 4 2 - - O 1006,9 7 0,4
12.12.2017 14:00:00 3,9 2,9 8 4 - - OZO 1007,5 21 0,0
12.12.2017 13:00:00 2,5 2,0 5 3 - - NO 1008,5 15 0,0
12.12.2017 12:00:00 0,8 0,3 8 4 - - NO 1008,8 14 0,0
12.12.2017 11:00:00 0,0 -0,5 2 1 - - O 1008,9 14 0,0
12.12.2017 10:00:00 0,2 -0,2 8 4 - - O 1008,9 17 0,0
12.12.2017 09:00:00 -0,4 -0,8 9 5 - - O 1008,6 18 0,0
12.12.2017 08:00:00 -2,3 -2,9 8 4 - - ONO 1008,6 16 0,0
12.12.2017 07:00:00 -2,0 -2,5 8 4 - - O 1007,5 14 0,0
12.12.2017 06:00:00 -2,6 -3,3 5 3 - - ONO 1007,0 15 0,0
12.12.2017 05:00:00 -1,3 -2,0 4 2 - - ONO 1006,1 15 0,0
12.12.2017 04:00:00 -0,9 -1,5 9 5 - - N 1005,7 22 0,0
12.12.2017 03:00:00 -0,9 -2,2 5 3 - - NNO 1005,4 22 0,0
12.12.2017 02:00:00 2,9 1,6 8 4 - - N 1004,0 29 0,0
12.12.2017 01:00:00 3,9 2,6 13 7 - - NW 1003,0 23 0,0
12.12.2017 00:00:00 4,0 2,5 15 8 - - NW 1002,2 18 0,0
11.12.2017 23:00:00 3,3 2,0 8 4 - - NNW 1001,0 23 0,0
11.12.2017 22:00:00 3,9 2,2 18 10 - - WNW 1000,4 30 0,0
11.12.2017 21:00:00 3,9 2,0 16 9 - - WNW 999,7 35 0,0
11.12.2017 20:00:00 4,3 2,3 26 14 - - NW 998,4 30 0,0
11.12.2017 19:00:00 4,2 2,5 16 9 - - NNW 996,4 30 0,0
11.12.2017 18:00:00 3,1 0,7 5 3 - - NW 995,2 30 0,0
11.12.2017 17:00:00 3,5 0,8 8 4 - - NW 994,4 30 0,0
11.12.2017 16:00:00 3,2 -0,5 8 4 - - NW 993,6 25 0,0
11.12.2017 15:00:00 4,8 -1,1 5 3 - - N 992,9 40 0,0
11.12.2017 14:00:00 4,8 -1,4 15 8 - - N 992,3 35 0,0
11.12.2017 13:00:00 4,5 -2,5 21 11 - - NNO 991,6 35 0,0
11.12.2017 12:00:00 3,8 -1,6 28 15 - - N 990,8 40 0,0
11.12.2017 11:00:00 2,6 -2,1 24 13 - - N 990,3 40 0,0
11.12.2017 10:00:00 1,8 -2,4 37 20 54 29 N 988,6 30 0,0
11.12.2017 09:00:00 0,9 -2,5 35 19 48 26 N 987,4 30 0,0
11.12.2017 08:00:00 1,5 -2,3 35 19 46 25 N 986,1 35 0,0
11.12.2017 07:00:00 1,6 -1,7 31 17 - - NNO 984,8 30 0,0
11.12.2017 06:00:00 1,6 -1,6 31 17 50 27 NNO 983,0 27 0,0
11.12.2017 05:00:00 1,7 -0,7 37 20 55 30 NNO 981,8 29 0,0
11.12.2017 04:00:00 1,4 -0,7 24 13 52 28 NNO 981,8 22 0,0
11.12.2017 03:00:00 1,7 -0,4 22 12 - - NNO 982,1 20 0,0
11.12.2017 02:00:00 1,9 -0,3 29 16 - - NNO 981,6 18 0,0
11.12.2017 01:00:00 1,9 -0,1 24 13 - - NO 981,6 21 0,0
11.12.2017 00:00:00 1,5 -0,2 29 16 - - NO 980,7 13 0,0
10.12.2017 23:00:00 1,2 -0,4 22 12 - - NO 980,7 13 0,0
10.12.2017 22:00:00 0,9 -0,4 21 11 - - NO 980,0 11 0,0
10.12.2017 21:00:00 0,9 -0,4 15 8 - - ONO 979,5 14 0,0
10.12.2017 20:00:00 0,9 -0,2 21 11 - - ONO 979,2 16 0,0
10.12.2017 19:00:00 1,1 0,3 16 9 - - ONO 978,9 17 0,0
10.12.2017 18:00:00 1,2 0,4 16 9 - - ONO 978,4 12 0,2
10.12.2017 17:00:00 1,3 0,6 11 6 - - ONO 978,3 14 0,0
10.12.2017 16:00:00 1,4 0,6 11 6 - - ONO 978,0 22 0,0
10.12.2017 15:00:00 1,6 0,8 11 6 - - ONO 977,8 17 0,2
10.12.2017 14:00:00 1,6 0,4 16 9 - - ONO 978,0 7 0,0
10.12.2017 13:00:00 2,1 0,7 13 7 - - ONO 978,3 35 0,0
10.12.2017 12:00:00 2,1 1,4 8 4 - - N 978,3 23 0,2
10.12.2017 11:00:00 2,0 1,3 13 7 - - N 978,3 16 0,4
10.12.2017 10:00:00 1,9 1,2 16 9 - - NNW 977,9 10 0,8
10.12.2017 09:00:00 1,8 0,7 24 13 46 25 N 976,2 10 1,2
10.12.2017 08:00:00 3,3 2,2 24 13 - - N 972,4 8 1,4
10.12.2017 07:00:00 4,9 4,3 26 14 52 28 O 973,5 12 1,8
10.12.2017 06:00:00 4,6 3,8 31 17 57 31 OZO 976,1 6 1,4
10.12.2017 05:00:00 3,8 2,9 24 13 50 27 O 979,3 11 2,2
10.12.2017 04:00:00 3,6 2,9 24 13 - - O 984,0 10 2,8
10.12.2017 03:00:00 3,4 2,6 26 14 - - O 988,2 3,8 3,6
10.12.2017 02:00:00 3,4 2,5 22 12 - - O 992,1 6 1,4
10.12.2017 01:00:00 3,8 2,7 18 10 - - O 995,3 9 0,6
10.12.2017 00:00:00 4,0 1,8 18 10 - - OZO 998,4 16 0,0
09.12.2017 23:00:00 4,2 0,5 18 10 - - OZO 1001,3 18 0,0
09.12.2017 22:00:00 4,1 0,0 16 9 - - OZO 1003,5 25 0,0
09.12.2017 21:00:00 3,9 -0,7 15 8 - - O 1005,7 23 0,0
09.12.2017 20:00:00 3,2 -0,9 11 6 - - O 1007,4 22 0,0
09.12.2017 19:00:00 3,1 -1,2 11 6 - - O 1008,9 23 0,0
09.12.2017 18:00:00 3,2 -0,6 9 5 - - O 1010,1 23 0,0
09.12.2017 17:00:00 3,6 -1,2 5 3 - - OZO 1011,1 25 0,0

tt = temperatuur
td = dauwpunt
ff = windsnelheid
fx = windstoten
dd = windrichting
ppp = luchtdruk
vv = zicht
rr = neerslag

Weerstations in de omgeving